Погода в Выборге

Хотите узнать прогноз погоды в Выборге? Тогда Вам сюда: Погода в Выборге

Поиск расширенной информации на нашем сайте:

Полезная информация:

Новости сайта



02.01.2020
Опубликован Долгосрочный прогноз погоды по городам России и ближнего зарубежья на январь 2020 года.
Карты: Прогноз на январь и февраль 2020 года, Сравнение прогнозируемой аномалии приземной температуры воздуха на январь 2020 года по разным моделям.




Погода в Выборге - сегодня

Время (UTC), дата Ветер
(°,м/с) 
Видим.   Явления Облачность Т
(°С)
Тd
(°С)
f(%) Тe
(°С)
Pmin
(гПа)
dP
(гПа)
Po
(мм)
O2
(г/м3)
Тmin Tmax R s Состояние
почвы
21 15.01.22 310 (СЗ) 20000 м    3/0 средняя 
[Ac As]
-6 -8.5 82 -6  1010.3  0.8  756  313           
00 16.01.22 290 (З) 20000 м    4/0 средняя 
[Ac As]
-7.8 -9.5 88 -9  1009.2  -1  756  314           
03 16.01.22 190 (Ю) 20000 м    6/0 средняя 
[Ac As]
-8.7 -9.9 91 -10  1006  -3.3  753  314  -11.1         
06 16.01.22 240 (ЮЗ) 20000 м    3/0 средняя 
[Ac As]
-5 -6.2 91 -9  1003.7  -2.3  752  309  -11.1      29  неравномерный
мокрый или
старый снег
100% 
09 16.01.22 230 (ЮЗ) 20000 м    10/3 1000 м кучево-дожд., средняя, верхняя 
[Cb cap|Ac trans|Ci fib]
-1 -2.9 87 -5  1000.4  -3.2  749  303           
12 16.01.22 230 (ЮЗ) 10-13{14}  20000 м    10/10 240 м 
[Frnb|Ns]
+0.4 -1.2 89 -4  996.6  -3.8  746  300           
15 16.01.22 230 (ЮЗ) 10-14{16}  4000 м  слаб. дождь [диам. гололёда 3 мм]  10/10 120 м 
[Frnb|Ns]
+0.2 -0.5 95 -5  991.5  -5.1  742  299      0.4     
18 16.01.22 240 (ЮЗ) 8-12{16}  10 км  в посл. час дождь  10/10 120 м 
[Frnb|Ns]
+0.9 +0.3 96 -3  985.6  -5.9  738  296    +1     
21 16.01.22 270 (З) 5{12}  10 км  {дождь}  10/8 480 м средняя 
[Ac As]
+1.1 +0 92 -2  983  -2.6  736  295           
00 17.01.22 270 (З) 10 км  {дождь}  9/9 420 м кучево-дожд. 
[Cb cap]
-0.2 -1.8 89 -3  982.7  -0.3  736  297           
03 17.01.22 190 (Ю) 20000 м    10/6 330 м кучево-дожд., средняя, верхняя 
[Cb cap|Ac trans|Ci fib]
-1.8 -3.5 88 -3  979.5  -3.1  734  298  -2.2       
06 17.01.22 050 (СВ) 10 км    10/8 300 м кучево-дожд., средняя 
[Cb cap|Ac und]
-1.7 -2.8 92 -3  978.6  -1  733  297  -3.7    0.6  29  неравномерный
мокрый или
старый снег
100% 
09 17.01.22 350 (С) 20000 м    9/4 600 м средняя 
[Sc|Ac trans]
-2.3 -3.9 89 -4  982.7  4.2  736  299           
12 17.01.22 350 (С) 6-11{11}  20000 м    8/0 средняя, верхняя 
[Ac trans|Cc]
-1.9 -7.9 63 -6  986.6  3.8  739  301           
15 17.01.22 340 (С) 6-10{14}  20000 м    ясно 
-4 -11.8 55 -8  992.7  6.1  743  305           
18 17.01.22 340 (С) 6-12{13}  20000 м    ясно 
-4.2 -12.7 52 -8  996.5  3.7  746  306    -1.7       
21 17.01.22 340 (С) 6-11{14}  20000 м    ясно 
-4.2 -11.1 59 -8  1000.5  749  308           
00 18.01.22 350 (С) 6-11{14}  50000 м    ясно 
-4.2 -12.6 52 -8  1005.2  4.7  753  309           
03 18.01.22 340 (С) 4{14}  20000 м    ясно 
-4.8 -10.2 66 -8  1009.7  4.5  756  311  -4.9         
06 18.01.22 340 (С) 20000 м    3/0 верхняя 
[Ci fib]
-6 -10.3 72 -9  1012.7  3.1  758  313  -6.1      29  неравномерный
мокрый или
старый снег
100% 
09 18.01.22 320 (СЗ) 20000 м    6/0 средняя 
[Ac trans]
-6 -10.2 72 -9  1016.1  3.3  761  314           
12 18.01.22 300 (СЗ) 20000 м    8/0 средняя 
[Ac trans]
-5.5 -9.5 73 -8  1017.5  1.5  762  314           
15 18.01.22 190 (Ю) 10 км    10/0 средняя 
[Ac As]
-7.5 -9.7 84 -10  1017  -0.6  761  316           
18 18.01.22 240 (ЮЗ) 20000 м    9/0 средняя 
[Ac trans]
-4.8 -8 78 -8  1014.6  -2.4  760  312    -4.7       
21 18.01.22 240 (ЮЗ) 4000 м  слаб. снег  10/10 150 м 
[Ns]
-0.8 -1.6 94 -4  1011.4  -3.1  757  306           
Время (UTC), дата Ветер
(°,м/с) 
Видим.   Явления Облачность Т
(°С)
Тd
(°С)
f(%) Тe
(°С)
Pmin
(гПа)
dP
(гПа)
Po
(мм)
O2
(г/м3)
Тmin Tmax R s Состояние
почвы

Для получения пояснительной информации подведите курсор к названию столбца.

ПОГОДА в Выборге - архив

Всё, что Вы хотите узнать о погоде в Выборге - удобно и подробно!

Выберите нужную дату (начиная с 1 января 2019* года) и нажмите кнопку "Найти".
Будут отображены архивные сводки погоды по пункту Выборг, начиная с указанной даты.


Отображать данные в формате CSV (для использования в таблицах Excel)


Внимание! Наш архив погоды предназначен исключительно для личного некоммерческого использования в познавательных целях. Если Вам необходимы официальные справки о состоянии погоды (для производственных, юридических, коммерческих и т.п. целей), обращайтесь в органы Росгидромета.

*Примечание: данная дата относится к архиву по метеостанциям СССР (Россия, СНГ, Балтия).
Архив по метеостанциям Зарубежной Европы и Азии (кроме Китая) хранится 10 дней, по другим регионам земного шара (Китай, Африка, Америка, Австралия, Океания) - 1 день.

Выборг - район местоположения метеостанции


Название, широта, долгота, высота метеостанции:
Выборг 60.7°ш. 28.7°д. 13 м над ур. моря [Российская Федерация]

Дополнительная информация

В oтличие oт бoльшинства пoгoдных сайтoв мы публикуем пoдрoбную метеoинфoрмацию в детальнoм прoфессиoнальнoм фoрмате.

Характеристики температуры и влажнoсти вoздуха измеряются на высoте 2 м в тени вдали oт зданий и деревьев.
Скoрoсть ветра измеряется на высoте 10 м (на урoвне рoста челoвека скoрoсть ветра ниже в 1.5-2 раза). Если метеoстанция нахoдится в гoрoде или в лесу, тo скoрoсть ветра занижена на 2-4 м/с пo сравнению с oткрытым местoм. Скoрoсть ветра над акватoриями крупных рек и oзёр, а также на вершинах хoлмoв на 2-5 м/с выше, чем в oбычных услoвиях.
Атмoсфернoе давление в разных тoчках местнoсти мoжет значительнo oтличаться oт давления на метеoстанции, в зависимoсти oт услoвий рельефа (при пoдъёме на 10 м давление пoнижается примернo на 1 мм рт.ст.).